STARLINK-35234 (65601 NORAD) Tracking and Keplerian Element Data

This shows tracking and keplerian element data for the satellite.

Feedback or suggestion? Click here.




ElementValue
Catalog65601
NameSTARLINK-35234
Epoch Orbit583
Epoch Day354.25003472
Epoch Year2025
RAAN60.2294
Inclination97.6035
Eccentricity0.0002326
Argument of Perigee88.5003
Mean Anonmoly134.154
Mean Motion15.29897731
Decay Rate-0.02356791
L11 65601U 25207K 25354.25003472 -.02356791 00000+0 -91717-1 0 9996
L22 65601 97.6035 60.2294 0002326 88.5003 134.1540 15.29897731 5836



Live tracking and technical data element details for STARLINK-35234 (NORAD 65601). STARLINK-35234 can be tracked NOW for your location showing map with azimuth and elevation plus other details from your city location.







IsCatalogInMostPopularTable: catalog: 65601, numindb: 7
Update: records affected: 1



GetName: 65601 STARLINK-35234

Hit Count: updated at: Sat, 11 Apr 2026 21:34:06 GMT